User: anonymous
Location: Unspecified
(0.0000°N, 0.0000°E)
Time: 17:33:27
(UTC+02:00)
Language:

Cosmos 1898 Rocket - Orbit

View from above orbital plane
View from above orbital plane
View from above satellite
View from above satellite

Ground track
Ground track

The orbit data is extracted from the following two-line orbital elements,

1 18586U 87098B   14211.11542828  .00000090  00000-0  39556-4 0   857
2 18586 074.0069 074.0763 0020865 017.1063 142.1468 14.36436115396134
Epoch (UTC): 30 July 2014 02:46:13
Eccentricity: 0.0020865
inclination: 74.0069°
perigee height: 755 km
apogee height: 785 km
right ascension of ascending node: 74.0763°
argument of perigee: 17.1063°
revolutions per day: 14.36436115
mean anomaly at epoch: 142.1468°
orbit number at epoch: 39613

The dashed part of the orbit path shows where the satellite is in the earth's shadow,  

DLR